Location: Fredericksburg
(30.2750°N, 98.8720°W)
Time: 21:00:44
(UTC-06:00)

Daily predictions for brighter satellites

Satellite Brightness Start Highest point End
(mag) Time Altitude Azimuth Time Altitude Azimuth Time Altitude Azimuth
IDEFIX/ARIANE 42P 3.4 18:24:57 10° S 18:30:03 57° W 18:35:12 10° NNW
Cosmos 2279 Rocket 4.1 18:25:32 10° N 18:31:41 60° E 18:37:49 10° SSE
Milstar 3 3.4 18:26:06 10° W 18:33:05 56° SSW 18:39:50 10° ESE
Cosmos 372 Rocket 3.9 18:29:15 10° NNW 18:34:21 77° ENE 18:39:27 10° SSE
Cosmos 2058 3.4 18:30:45 10° SSW 18:34:48 65° W 18:38:52 10° N
Cosmos 773 Rocket 4.3 18:32:09 10° S 18:37:02 45° ESE 18:41:58 10° NNE
Cosmos 1805 Rocket 3.5 18:34:52 10° S 18:39:17 74° E 18:43:44 10° N
Cosmos 1461 4.5 18:38:09 10° SW 18:42:01 34° WNW 18:45:47 10° N
Nadezhda 4 Rocket 4.2 18:38:38 10° SSE 18:44:39 53° E 18:50:44 10° NNE
Cosmos 1626 2.1 18:42:21 10° S 18:46:02 67° E 18:49:45 10° NNE
SKYMED 2 3.9 18:43:15 10° N 18:47:34 71° WNW 18:51:52 10° SSW
Sich 1 3.0 18:47:49 10° S 18:52:12 64° E 18:56:35 10° NNE
Cosmos 1356 Rocket 3.3 18:50:50 10° S 18:54:48 90° SW 18:58:48 10° N
Aureole 1 Rocket 3.7 18:51:18 10° S 18:56:10 68° ESE 19:02:42 10° NNE
Lacrosse 5 rocket 1.3 18:55:17 10° NW 18:59:09 82° SW 19:03:15 10° SSE
ALOS 3.5 18:56:37 10° ESE 18:59:58 20° ENE 19:03:20 10° NNE
Cosmos 2180 Rocket 4.5 18:54:40 10° N 19:00:53 88° E 19:07:09 10° S
Coronas F rocket 0.8 18:59:43 10° S 19:02:03 61° E 19:03:52 15° NNE
Cosmos 1633 Rocket 3.0 18:58:15 10° S 19:02:38 75° E 19:07:01 10° N
Cosmos 1603 3.7 19:00:31 10° S 19:06:01 61° ESE 19:11:32 10° NNE
Cosmos 1092 Rocket 4.1 19:00:54 10° S 19:07:04 58° E 19:13:15 10° NNE
Delta 2 Rocket 3.2 19:05:01 10° SW 19:08:15 49° SSE 19:09:44 27° E
Cosmos 292 Rocket 3.8 19:05:02 10° S 19:09:40 55° ESE 19:14:08 11° NNE
Cosmos 1455 2.0 19:10:23 10° N 19:14:11 69° E 19:17:58 10° SSE
Cosmos 1184 Rocket 3.7 19:13:49 10° SSW 19:17:03 49° W 19:20:18 10° N
Cosmos 2278 Rocket 4.1 19:13:54 10° NW 19:18:54 33° WSW 19:23:53 10° SSW
SJ-6B 2.8 19:17:33 10° SSE 19:21:33 64° ENE 19:25:39 10° N
Spot 2 Rocket 4.0 19:22:02 10° SE 19:26:36 36° ENE 19:31:09 10° N
USA 229 DEB 4.2 19:20:31 10° SW 19:27:14 59° WNW 19:34:03 10° NNE
USA 229 4.2 19:20:36 10° SW 19:27:19 59° WNW 19:34:09 10° NNE
Iridium 4 Rocket 3.0 19:25:32 10° S 19:30:09 83° E 19:34:26 10° N
Cosmos 2195 Rocket 4.4 19:24:19 10° SSE 19:30:16 56° E 19:36:14 10° NNE
OTV 4 3.4 19:28:43 10° WSW 19:30:27 14° SW 19:32:10 10° S
FREGAT/IRIS 2.9 19:34:11 10° S 19:37:12 67° W 19:40:14 10° NNW
SL-19 R/B 4.3 19:33:49 10° SSE 19:39:43 64° ENE 19:45:17 10° N
ISS -0.5 19:38:52 10° S 19:38:53 10° S 19:38:53 10° S
NOSS 3-1 (A) 3.5 19:35:51 10° S 19:41:12 46° ESE 19:42:21 41° E
Cosmos 2369 Rocket 4.3 19:42:26 10° NNE 19:42:51 12° NNE 19:42:51 12° NNE
Resurs 01 Rocket 2.1 19:44:11 10° SSE 19:49:47 45° NNE 19:52:59 10° N
Cosmos 1933 Rocket 3.8 19:45:56 10° SSW 19:50:20 68° W 19:53:46 17° N
Cosmos 1680 Rocket 4.2 19:53:30 10° SSW 19:58:34 53° WNW 20:02:29 17° N
Tiangong 1 3.7 19:59:11 10° WNW 20:00:16 16° NW 20:00:16 16° NW
Genesis I 3.7 19:58:25 10° SW 20:01:52 57° W 20:01:52 57° W
Lacrosse 4 Rocket 2.6 19:59:34 10° NNW 20:01:46 31° NNW 20:01:46 31° NNW
Cosmos 1655 Rocket 3.9 19:57:54 10° S 20:04:17 82° E 20:09:16 18° N
Helios 1B rocket 3.7 20:07:51 34° SSW 20:07:51 34° SSW 20:10:12 10° SSW
FENGYUN 3A 3.7 20:03:23 10° S 20:08:43 75° WSW 20:14:05 10° NNW
In-Cosmos 22 Rocket 4.3 20:09:34 10° S 20:13:54 60° S 20:13:54 60° S
NOSS 3-1 (C) 3.7 20:13:19 10° SW 20:18:53 59° WNW 20:20:20 46° N
Cosmos 1943 3.6 20:17:21 10° SSW 20:22:55 61° WNW 20:23:49 54° NNW
USA 215 3.3 20:28:14 65° N 20:28:14 65° N 20:34:01 10° NW
ALOS 4.0 20:33:05 10° SSW 20:37:09 30° W 20:41:14 10° NW
Centaur AC-72 4.5 20:36:55 10° WSW 20:43:34 47° S 20:47:33 38° SE
